{"data":{"norad_id":67255,"intl_designator":"2025-313H","name":"2025-313H","alt_names":[],"object_type":"PAYLOAD","status":"ACTIVE","operator":null,"country":"TBD","launch_date":"2025-12-28","launch_site_code":"VOSTO","launch_vehicle":null,"mission":null,"orbit_class":"UNKNOWN","rcs_meters":null,"size_class":null,"mass_kg":null,"dimensions":null,"purposes":[],"wikipedia_slug":null,"has_3d_model":false,"image_url":null,"decayed_at":null,"tle_current":{"epoch":"2026-05-25T04:55:26.910048Z","epoch_age_seconds":53272,"freshness":"FRESH","line1":"1 67255U 25313H   26145.20517257  .00002952  00000+0  19043-3 0  9993","line2":"2 67255  97.2868 214.3398 0069979  54.1489 306.6212 15.06994695 22196","mean_motion":15.06994695,"eccentricity":0.0069979,"inclination_deg":97.2868,"raan_deg":214.3398,"arg_perigee_deg":54.1489,"mean_anomaly_deg":306.6212,"bstar":0.00019043,"rev_number":2219,"period_min":95.554417329916,"perigee_km":496.93935671195,"apogee_km":593.8396489402,"semimajor_km":6923.5265028261,"source":"CELESTRAK","updated_at":"2026-05-25T13:38:06.845635Z"}}}